When you browse on this site, cookies collect data to enhance your experience and personalize the content and advertising you see.
Visit our Privacy Policy to learn more. By continuing to use the site, you agree to this use of cookies and data.
  • In Hungary
  • List of Countries
  • For 7 days
  • Water Temperature
  • Weather Map
  • News
  • Weather Widgets
  • user-avatar
    Login

    Hourly Weather Mihali

    Today, 4 April, Saturday

    Time Temperature Precipitation Wind Pressure Humidity
    00:00 0°C° 0 mm 3 mps 737 mmHg 79%
    01:00 0°C° 0 mm 3 mps 737 mmHg 81%
    02:00 -1°C° 0 mm 3 mps 738 mmHg 82%
    03:00 -1°C° 0 mm 3 mps 738 mmHg 84%
    04:00 -1°C° 0 mm 3 mps 739 mmHg 86%
    05:00 -2°C° 0 mm 3 mps 739 mmHg 88%
    06:00 -1°C° 0 mm 3 mps 740 mmHg 85%
    07:00 0°C° 0 mm 3 mps 741 mmHg 81%
    08:00 +1°C° 0 mm 3 mps 742 mmHg 76%
    09:00 +2°C° 0 mm 3 mps 742 mmHg 65%
    10:00 +3°C° 0 mm 4 mps 743 mmHg 55%
    11:00 +5°C° 0 mm 4 mps 744 mmHg 44%
    12:00 +5°C° 0 mm 4 mps 744 mmHg 40%
    13:00 +6°C° 0 mm 4 mps 745 mmHg 36%
    14:00 +6°C° 0 mm 4 mps 745 mmHg 32%
    15:00 +6°C° 0 mm 4 mps 745 mmHg 34%
    16:00 +6°C° 0 mm 4 mps 745 mmHg 37%
    17:00 +7°C° 0 mm 3 mps 746 mmHg 39%
    18:00 +4°C° 0.1 mm 3 mps 746 mmHg 46%
    19:00 +3°C° 0.1 mm 3 mps 747 mmHg 53%
    20:00 +2°C° 0.1 mm 3 mps 747 mmHg 60%
    21:00 +2°C° 0.1 mm 3 mps 747 mmHg 64%
    22:00 +1°C° 0.1 mm 3 mps 748 mmHg 68%
    23:00 +1°C° 0.1 mm 3 mps 748 mmHg 71%

    Tomorrow, 5 April, Sunday

    Time Temperature Precipitation Wind Pressure Humidity
    00:00 +1°C° 0 mm 3 mps 749 mmHg 72%
    01:00 0°C° 0 mm 3 mps 749 mmHg 72%
    02:00 0°C° 0 mm 3 mps 750 mmHg 72%
    03:00 -1°C° 0 mm 3 mps 750 mmHg 74%
    04:00 -1°C° 0 mm 3 mps 751 mmHg 76%
    05:00 -2°C° 0 mm 3 mps 751 mmHg 77%
    06:00 -2°C° 0 mm 4 mps 751 mmHg 74%
    07:00 -1°C° 0 mm 4 mps 752 mmHg 70%
    08:00 0°C° 0 mm 4 mps 752 mmHg 66%
    09:00 +1°C° 0 mm 4 mps 753 mmHg 57%
    10:00 +3°C° 0 mm 5 mps 753 mmHg 48%
    11:00 +5°C° 0 mm 5 mps 754 mmHg 39%
    12:00 +6°C° 0 mm 5 mps 754 mmHg 38%
    13:00 +6°C° 0 mm 5 mps 754 mmHg 36%
    14:00 +7°C° 0 mm 5 mps 754 mmHg 35%
    15:00 +6°C° 0 mm 5 mps 754 mmHg 36%
    16:00 +6°C° 0 mm 4 mps 754 mmHg 37%
    17:00 +6°C° 0 mm 4 mps 754 mmHg 38%
    18:00 +5°C° 0 mm 3 mps 755 mmHg 45%
    19:00 +4°C° 0 mm 2 mps 755 mmHg 52%
    20:00 +3°C° 0 mm 2 mps 755 mmHg 58%
    21:00 +2°C° 0 mm 2 mps 755 mmHg 61%
    22:00 +2°C° 0 mm 2 mps 755 mmHg 63%
    23:00 +1°C° 0 mm 2 mps 756 mmHg 65%

    Day after tomorrow, 6 April, Monday

    Time Temperature Precipitation Wind Pressure Humidity
    00:00 +2°C° 0 mm 2 mps 756 mmHg 67%
    01:00 +2°C° 0 mm 2 mps 756 mmHg 68%
    02:00 +2°C° 0 mm 2 mps 756 mmHg 69%
    03:00 +2°C° 0 mm 2 mps 756 mmHg 75%
    04:00 +2°C° 0 mm 2 mps 756 mmHg 81%
    05:00 +2°C° 0 mm 3 mps 756 mmHg 88%
    06:00 +2°C° 0 mm 3 mps 756 mmHg 87%
    07:00 +3°C° 0 mm 3 mps 756 mmHg 86%
    08:00 +3°C° 0 mm 3 mps 756 mmHg 85%
    09:00 +5°C° 0 mm 3 mps 756 mmHg 79%
    10:00 +7°C° 0 mm 3 mps 757 mmHg 72%
    11:00 +9°C° 0 mm 3 mps 757 mmHg 65%
    12:00 +10°C° 0.1 mm 3 mps 757 mmHg 61%
    13:00 +10°C° 0.1 mm 3 mps 757 mmHg 57%
    14:00 +11°C° 0.1 mm 3 mps 757 mmHg 53%
    15:00 +11°C° 0.1 mm 3 mps 757 mmHg 54%
    16:00 +11°C° 0.1 mm 3 mps 757 mmHg 54%
    17:00 +12°C° 0.1 mm 2 mps 757 mmHg 55%
    18:00 +9°C° 0 mm 2 mps 757 mmHg 60%
    19:00 +8°C° 0 mm 2 mps 756 mmHg 65%
    20:00 +8°C° 0 mm 1 mps 756 mmHg 71%
    21:00 +7°C° 0 mm 1 mps 757 mmHg 72%
    22:00 +7°C° 0 mm 1 mps 757 mmHg 74%
    23:00 +6°C° 0 mm 1 mps 757 mmHg 76%

    7 April, Tuesday

    Time Temperature Precipitation Wind Pressure Humidity
    00:00 +6°C° 0 mm 1 mps 757 mmHg 77%
    01:00 +4°C° 0 mm 2 mps 757 mmHg 79%
    02:00 +4°C° 0 mm 2 mps 757 mmHg 80%
    03:00 +4°C° 0 mm 2 mps 757 mmHg 81%
    04:00 +3°C° 0 mm 2 mps 757 mmHg 82%
    05:00 +3°C° 0 mm 2 mps 757 mmHg 82%
    06:00 +4°C° 0 mm 2 mps 757 mmHg 76%
    07:00 +6°C° 0 mm 2 mps 756 mmHg 71%
    08:00 +7°C° 0 mm 3 mps 756 mmHg 65%
    09:00 +9°C° 0 mm 3 mps 756 mmHg 58%
    10:00 +11°C° 0 mm 4 mps 756 mmHg 50%
    11:00 +12°C° 0 mm 4 mps 756 mmHg 43%
    12:00 +13°C° 0 mm 4 mps 755 mmHg 41%
    13:00 +14°C° 0 mm 5 mps 755 mmHg 39%
    14:00 +15°C° 0 mm 5 mps 755 mmHg 37%
    15:00 +14°C° 0 mm 4 mps 754 mmHg 39%
    16:00 +14°C° 0 mm 4 mps 754 mmHg 41%
    17:00 +14°C° 0 mm 4 mps 753 mmHg 43%
    18:00 +12°C° 0 mm 4 mps 753 mmHg 49%
    19:00 +11°C° 0 mm 3 mps 753 mmHg 55%
    20:00 +9°C° 0 mm 3 mps 752 mmHg 61%
    21:00 +9°C° 0 mm 3 mps 752 mmHg 64%
    22:00 +9°C° 0 mm 3 mps 752 mmHg 67%
    23:00 +8°C° 0 mm 3 mps 752 mmHg 70%

    8 April, Wednesday

    Time Temperature Precipitation Wind Pressure Humidity
    00:00 +8°C° 0 mm 3 mps 751 mmHg 74%
    01:00 +7°C° 0 mm 3 mps 751 mmHg 77%
    02:00 +7°C° 0 mm 3 mps 751 mmHg 80%
    03:00 +7°C° 0 mm 3 mps 751 mmHg 83%
    04:00 +5°C° 0 mm 3 mps 751 mmHg 86%
    05:00 +5°C° 0 mm 3 mps 751 mmHg 90%
    06:00 +6°C° 0 mm 4 mps 751 mmHg 84%
    07:00 +7°C° 0 mm 4 mps 751 mmHg 79%
    08:00 +7°C° 0 mm 4 mps 751 mmHg 74%
    09:00 +8°C° 0 mm 4 mps 751 mmHg 69%
    10:00 +10°C° 0 mm 4 mps 751 mmHg 64%
    11:00 +11°C° 0 mm 4 mps 751 mmHg 59%
    12:00 +12°C° 0 mm 4 mps 751 mmHg 56%
    13:00 +13°C° 0 mm 3 mps 751 mmHg 53%
    14:00 +14°C° 0 mm 3 mps 751 mmHg 50%
    15:00 +14°C° 0 mm 3 mps 751 mmHg 50%
    16:00 +14°C° 0 mm 3 mps 750 mmHg 50%
    17:00 +15°C° 0 mm 2 mps 750 mmHg 50%
    18:00 +13°C° 0 mm 2 mps 749 mmHg 56%
    19:00 +10°C° 0 mm 2 mps 749 mmHg 63%
    20:00 +9°C° 0 mm 2 mps 749 mmHg 69%
    21:00 +8°C° 0 mm 2 mps 749 mmHg 72%
    22:00 +8°C° 0 mm 2 mps 748 mmHg 74%
    23:00 +7°C° 0 mm 2 mps 748 mmHg 77%

    9 April, Thursday

    Time Temperature Precipitation Wind Pressure Humidity
    00:00 +7°C° 0 mm 2 mps 748 mmHg 78%
    01:00 +6°C° 0 mm 2 mps 747 mmHg 79%
    02:00 +5°C° 0 mm 3 mps 747 mmHg 80%
    03:00 +5°C° 0 mm 3 mps 746 mmHg 83%
    04:00 +4°C° 0 mm 3 mps 746 mmHg 85%
    05:00 +4°C° 0 mm 3 mps 745 mmHg 88%
    06:00 +5°C° 0 mm 4 mps 745 mmHg 79%
    07:00 +5°C° 0 mm 4 mps 744 mmHg 69%
    08:00 +6°C° 0 mm 5 mps 744 mmHg 60%
    09:00 +8°C° 0 mm 5 mps 744 mmHg 58%
    10:00 +9°C° 0 mm 6 mps 743 mmHg 55%
    11:00 +10°C° 0 mm 6 mps 743 mmHg 52%
    12:00 +10°C° 0 mm 7 mps 743 mmHg 55%
    13:00 +9°C° 0 mm 7 mps 742 mmHg 59%
    14:00 +8°C° 0 mm 7 mps 742 mmHg 62%
    15:00 +8°C° 0.1 mm 7 mps 742 mmHg 58%
    16:00 +8°C° 0.1 mm 6 mps 742 mmHg 55%
    17:00 +8°C° 0.1 mm 6 mps 742 mmHg 51%
    18:00 +5°C° 0 mm 6 mps 743 mmHg 51%
    19:00 +5°C° 0 mm 5 mps 744 mmHg 50%
    20:00 +3°C° 0 mm 5 mps 744 mmHg 50%
    21:00 +2°C° 0 mm 5 mps 745 mmHg 52%
    22:00 +1°C° 0 mm 5 mps 745 mmHg 55%
    23:00 -1°C° 0 mm 5 mps 745 mmHg 58%
    Show more